Regional Weather Roundup
Issued by NWS

Home | Current Version | Previous Version | Graphics & Text | Print | Product List | Glossary On
Versions: 1 2 3 4 5 6 7 8 9 10 11 12 13 14 15 16 17 18 19 20 21 22 23 24 25 26 27 28 29 30 31 32 33 34 35 36 37 38 39 40 41 42 43 44 45 46 47 48 49 50
000
ASUS43 KLOT 270210
RWRIL

ILLINOIS REGIONAL WEATHER ROUNDUP
NATIONAL WEATHER SERVICE CHICAGO/ROMEOVILLE IL
800 PM CST THU FEB 26 2015

NOTE: "FAIR" INDICATES FEW OR NO CLOUDS BELOW 12,000 FEET WITH NO
SIGNIFICANT WEATHER AND/OR OBSTRUCTIONS TO VISIBILITY.

* THESE STATIONS ARE NOT UNDER NWS QUALITY CONTROL. THEY ALSO MAY NOT
  REPORT WEATHER SUCH AS PRECIPITATION OR FOG.

ILZ001-002-007-009-015-016-024-270300-
NORTHWEST ILLINOIS

CITY           SKY/WX    TMP DP  RH WIND       PRES   REMARKS
MOLINE         CLEAR      5  -5  63 NW14      30.47R WCI -12
STERLING*      CLEAR      1  -6  71 CALM      30.43R
SAVANNA*       CLEAR      4  -6  62 NW6       30.44R WCI  -6
$$

ILZ003-004-008-010-011-017-018-270300-
NORTH CENTRAL ILLINOIS

CITY           SKY/WX    TMP DP  RH WIND       PRES   REMARKS
ROCKFORD       CLEAR      5  -6  60 CALM      30.42R
FREEPORT*      CLEAR      2  -7  65 W5        30.42R WCI  -7
ROCHELLE*      CLEAR     -1  -8  74 CALM      30.41S
DE KALB*       CLEAR      2  -7  67 NW5       30.39R WCI  -8
PERU*          CLEAR      6  -2  68 NW7       30.44R WCI  -5
$$

ILZ005-006-012>014-019>023-270300-
NORTHEAST ILLINOIS

CITY           SKY/WX    TMP DP  RH WIND       PRES   REMARKS
CHICAGO-OHARE  PTCLDY     8  -6  52 NW12      30.38R WCI  -7
CHICAGO-MIDWAY PTCLDY    12  -3  51 NW9       30.38R WCI   0
AURORA         CLEAR     -3 -11  68 NW6       30.40R WCI -15
LANSING*       CLEAR     13   0  57 NW7       30.37R WCI   2
JOLIET*        CLEAR      8  -4  58 NW7       30.41R WCI  -3
WAUKEGAN       CLEAR      6  -7  54 NW7       30.38R WCI  -6
DUPAGE AIRPORT CLEAR      6  -5  60 NW10      30.38R WCI  -9
KANKAKEE*      CLEAR      9   1  68 NW9       30.39R WCI  -4
WHEELING       CLEAR      8  -6  52 NW7       30.40R WCI  -3
MORRIS*        CLEAR      4  -3  71 NW7       30.41R WCI  -8
ROMEOVILLE*    CLEAR      6  -4  63 NW9       30.39R WCI  -8
NORTHERLY ISL    N/A     14   1  56 NW6         N/A  WCI   5
$$

LMZ740>746-270300-
SOUTHERN LAKE MICHIGAN

STATION/POSITION SKY/WX   TEMP    WIND        PRES    VSBY  WAVE
                          AIR SEA DIR/SP/G                  HT/PER
                          (F)     (DEG/KT/KT) (MB)    (MI)  (FT/S)
WAUKEGAN HARBOR             9     320/ 10/ 13   N/A
HARRISON CRIB              14     310/ 13/ 15   N/A
BURNHAM HARBOR             14     300/  8/ 13   N/A
CALUMET HARBOR             13     290/  6/  8 1027.2R
MICHIGAN CITY              15     330/ 13/ 16   N/A
$$

ILZ025>027-034>036-040-047-049-050-058-095>099-270300-
WEST-CENTRAL ILLINOIS

CITY           SKY/WX    TMP DP  RH WIND       PRES   REMARKS
QUINCY         CLEAR      5  -4  66 NW12      30.49R WCI -11
GALESBURG*     CLEAR     -1  -7  75 W6        30.46R WCI -12
MACOMB*        CLEAR      3  -3  74 NW15      30.50R WCI -15
JACKSONVILLE*  CLOUDY    10   1  66 NW10      30.47R WCI  -4
PITTSFIELD*    CLEAR      8  -1  68 NW5       30.49R WCI  -1
$$

ILZ028>032-037-038-041>044-048-051>054-059>061-270300-
CENTRAL ILLINOIS

CITY           SKY/WX    TMP DP  RH WIND       PRES   REMARKS
PONTIAC        CLOUDY    11   3  70 NW9       30.42R WCI  -1
BLOOMINGTON    CLOUDY    11   4  73 NW15      30.41R WCI  -5
DECATUR        CLOUDY    15   8  73 NW13      30.41R WCI   1
PEORIA         CLEAR     10   4  76 W6        30.46R WCI   0
LACON*         PTCLDY     8   1  70 W3        30.44R
LINCOLN*       FLURRIES  14   8  78 NW6       30.47R WCI   5
SPRINGFIELD    CLOUDY    12   3  67 NW14      30.46R WCI  -3
TAYLORVILLE    LGT SNOW  14  10  85 N15       30.44R WCI  -1
$$

ILZ033-039-045-046-055>057-062-063-270300-
EAST-CENTRAL ILLINOIS

CITY           SKY/WX    TMP DP  RH WIND       PRES   REMARKS
CHAMPAIGN      PTCLDY     9   2  73 NW12      30.39R WCI  -6
DANVILLE*      CLOUDY    15   9  78 NW7       30.34R WCI   5
RANTOUL*       CLEAR      8   3  79 NW9       30.39R WCI  -5
MATTOON        CLOUDY    13   7  77 N13       30.38R WCI  -2
PARIS*         CLEAR      6   2  83 NW5       30.38R WCI  -2
$$

ILZ079-100>102-270300-
SOUTHWEST ILLINOIS

CITY           SKY/WX    TMP DP  RH WIND       PRES   REMARKS
ALTON          CLOUDY    16   1  53 NW15      30.46R WCI   1
CAHOKIA*       CLOUDY    18   6  59 N18       30.47R WCI   2
SPARTA*        CLOUDY    19  11  70 N6        30.44R WCI  11
$$

ILZ064>066-069>071-074>076-080>082-084>086-088>090-092>094-270300-
SOUTH-CENTRAL ILLINOIS

CITY           SKY/WX    TMP DP  RH WIND       PRES   REMARKS
CARBONDALE     FLURRIES  21  14  74 N13       30.42R WCI   9
CAIRO*         CLOUDY    27  17  66 N14       30.40R WCI  15
EFFINGHAM*     CLOUDY    19  11  71 NW7       30.42R WCI  10
MARION         CLOUDY    23  12  63 N9G17     30.41R WCI  13
MT. VERNON     CLOUDY    19  12  73 NW3       30.42R
CENTRALIA*     CLOUDY    19  12  74 NW12G18   30.42R WCI   6
SALEM*         FLURRIES  20  14  77 NW9G18    30.42R WCI   9
METROPOLIS*    CLEAR     23  18  80 NW9       30.38R WCI  13
$$

ILZ067-068-072-073-078-083-087-091-270300-
SOUTHEAST ILLINOIS

CITY           SKY/WX    TMP DP  RH WIND       PRES   REMARKS
LAWRENCEVILLE  CLEAR     18   9  68 N12       30.38R WCI   5
FLORA*         CLOUDY    20  12  72 N8        30.41R WCI  10
FAIRFIELD*     MIX PCPN  21  16  80 NW7       30.40R WCI  12
HARRISBURG*    CLEAR     21  13  72 N9G16     30.41R WCI  11
ROBINSON*      CLEAR     16   8  72 N8        30.40R WCI   5
CARMI*         PTCLDY    23  17  78 NW10      30.39R WCI  12
$$

ABBREVIATIONS USED IN REMARKS
   TC - TEMPERATURE IN CELSIUS
  WCI - WIND CHILL INDEX
   HX - HEAT INDEX
  VSB - VISIBILITY
$$



USA.gov is the U.S. government's official web portal to all federal, state and local government web resources and services.